Theta_e
334 334 334 334 334 332 331 331 331 330 330 332 333 332 333 332 332 332 332 332 332 331 331 332 332 332 332 332 332 332 332 332 333 333 333 332 332 332 332 332 332 332 333 333 333 333 333 333 333 333 332 331 330 330 330 331 331 331 332 332 331 331 331 331 331 330 330 329 328 324 317 313 314 315 316 316 319 323 324 325 327 327 327 327 327
334 333 333 334 334 333 332 332 332 331 331 332 333 333 333 332 332 332 333 333 333 332 332 332 332 332 332 332 332 332 332 332 332 332 332 332 333 332 332 332 332 332 332 333 333 332 332 332 332 332 332 330 330 331 331 331 331 331 332 332 332 332 331 331 331 331 330 330 329 328 322 315 313 315 316 317 318 322 324 325 327 327 326 327 327
333 333 333 333 333 333 333 332 333 333 331 331 332 332 331 331 331 332 332 332 332 332 331 332 332 332 332 332 332 331 331 332 332 332 332 331 331 330 330 331 331 331 332 332 332 332 332 331 332 332 332 331 331 331 330 330 330 331 332 331 331 332 331 331 331 331 330 330 329 329 327 320 314 314 316 316 317 321 324 325 326 327 326 326 327
333 333 333 332 331 332 331 331 333 333 332 331 331 331 330 330 330 331 332 332 331 331 331 331 331 331 331 331 330 330 331 331 331 331 330 329 328 328 329 330 332 332 332 333 332 333 333 332 332 332 333 333 330 330 331 330 331 331 331 330 330 331 331 331 330 330 330 330 330 329 329 325 318 314 315 317 316 319 323 325 325 326 326 326 327
333 334 333 331 330 330 331 331 332 332 331 331 331 330 330 330 331 331 331 331 331 330 330 329 329 328 328 329 329 329 329 329 329 328 327 327 327 328 329 331 331 331 331 331 332 332 333 333 333 332 332 331 329 330 331 330 331 331 331 330 330 331 331 331 330 330 330 330 330 329 329 328 324 317 314 316 316 318 322 324 325 325 325 326 328
333 334 332 331 331 330 330 330 330 330 330 331 331 331 330 330 330 330 330 330 329 328 327 326 326 327 328 328 328 328 327 327 326 325 326 328 329 329 329 330 330 330 329 330 331 332 332 332 332 332 332 331 330 330 330 330 330 331 330 330 330 330 330 330 331 332 331 330 330 329 329 329 328 324 316 314 316 317 319 323 325 325 325 326 328
332 332 332 332 331 330 330 330 330 331 331 331 331 330 330 329 329 329 328 327 327 326 325 326 326 326 327 327 327 326 325 324 324 325 328 330 330 330 330 330 330 330 330 330 331 332 332 332 331 332 332 331 331 330 329 329 330 330 330 330 331 331 329 329 331 332 331 331 332 330 329 329 329 328 322 316 315 316 317 321 324 325 325 326 327
331 330 330 331 330 331 331 331 331 331 331 330 330 329 329 329 328 328 327 327 326 326 326 326 326 326 327 326 325 325 324 323 324 326 329 330 331 331 331 331 331 332 331 331 331 331 331 331 331 331 331 330 330 330 329 329 330 329 328 330 332 332 331 329 330 331 331 331 332 331 330 329 328 329 327 320 315 316 317 319 323 324 325 326 326
333 331 331 330 331 331 331 331 331 330 329 329 329 329 329 329 328 327 327 326 325 325 325 325 325 326 326 325 325 324 324 324 325 327 329 330 331 331 332 332 332 331 331 330 330 330 330 330 330 329 329 328 328 328 328 329 330 329 328 329 331 331 331 331 330 331 331 331 332 331 331 330 329 328 328 324 316 314 316 318 321 324 325 325 325
334 332 332 331 331 331 330 331 330 329 329 329 329 329 329 328 328 327 326 325 325 324 323 322 322 322 324 324 324 324 324 324 325 327 329 330 330 331 331 331 330 330 330 329 329 329 328 328 328 328 327 327 327 327 327 329 329 329 329 328 329 330 331 331 330 329 330 331 331 331 331 330 330 329 329 327 320 315 315 317 320 322 324 325 325
333 332 331 331 331 331 331 331 331 330 330 329 330 329 329 328 328 327 326 326 325 323 321 320 319 320 320 320 322 323 324 325 326 327 328 329 330 330 330 329 329 328 328 328 328 327 327 327 327 327 326 326 325 326 326 327 328 328 328 327 328 329 330 330 330 330 329 331 331 330 331 330 330 330 329 329 325 318 316 317 318 320 323 325 325
333 332 331 331 331 331 332 331 331 331 330 330 330 329 328 327 326 326 325 324 323 322 321 320 318 316 316 317 320 321 323 325 327 327 327 328 328 328 328 328 327 327 326 325 325 325 325 325 325 326 325 324 324 324 325 325 326 326 326 326 326 326 327 328 329 330 330 330 330 331 332 330 329 329 329 330 328 323 318 317 318 319 322 324 325
333 332 332 331 331 330 330 330 331 330 330 329 327 327 326 324 323 322 322 321 320 320 318 317 314 313 313 314 316 318 321 324 326 327 327 326 326 325 324 323 322 321 322 321 319 319 320 321 322 323 323 323 323 323 323 323 324 324 324 324 324 324 325 326 327 329 329 329 329 330 331 330 329 329 329 329 329 327 321 318 318 318 320 323 325
333 333 332 332 331 331 330 330 330 330 329 328 327 326 323 321 320 319 318 317 316 315 314 313 313 312 312 312 313 315 318 324 326 327 328 326 323 320 318 316 313 312 312 312 312 312 313 315 317 318 319 319 319 320 320 321 321 322 322 322 322 323 323 323 325 326 328 328 329 330 331 331 331 330 329 329 329 329 325 320 320 319 319 322 325
333 333 332 331 331 331 331 330 330 330 329 328 326 323 320 318 317 315 314 313 313 313 313 312 312 312 312 311 312 313 317 323 322 320 321 320 315 312 309 307 305 304 304 304 305 306 308 310 312 313 314 314 313 314 315 316 317 318 319 319 319 321 321 321 323 325 325 326 327 329 330 330 331 331 330 330 329 330 328 322 320 321 320 320 324
332 332 330 330 330 330 330 329 329 328 327 325 322 319 317 315 314 313 312 312 312 312 312 311 310 310 308 308 309 310 313 315 312 311 311 309 306 304 303 302 300 300 300 300 301 302 304 307 309 310 310 310 309 309 309 310 310 312 314 316 316 317 319 320 321 323 324 324 325 326 328 329 330 331 331 330 329 330 329 324 320 322 322 320 321
331 330 328 328 327 327 326 326 326 324 322 320 317 316 314 313 312 312 311 311 311 310 309 308 306 305 304 304 306 307 307 305 304 307 306 303 302 301 300 300 300 299 299 299 299 299 301 303 305 306 306 305 304 304 304 304 304 305 307 309 311 312 314 318 320 321 322 323 324 324 326 328 329 330 330 331 330 330 330 327 321 319 323 322 320
328 328 327 326 325 324 324 324 322 320 318 316 314 313 312 312 311 311 311 310 308 306 304 303 303 302 302 302 303 303 303 302 302 303 303 302 301 299 299 299 299 299 299 299 299 298 299 299 299 300 300 300 300 299 299 299 299 300 301 302 304 305 308 312 316 318 320 322 323 324 325 326 328 329 330 331 331 330 330 329 325 320 321 324 322
326 326 325 324 323 323 322 320 318 316 314 313 312 311 311 310 310 309 307 305 303 302 302 302 302 302 302 302 301 302 302 302 300 299 300 301 300 299 299 298 298 298 298 298 298 298 298 298 298 298 298 297 298 298 298 298 298 298 298 298 299 300 302 305 309 313 316 319 322 323 324 325 326 328 330 330 330 331 330 330 329 324 320 322 324
325 324 323 322 321 320 318 316 314 313 312 311 311 310 309 308 306 304 302 302 301 301 301 301 301 301 301 302 301 301 301 300 299 299 299 300 300 300 299 298 298 298 298 298 297 298 297 297 298 297 298 297 298 298 298 298 298 298 298 298 298 298 299 300 302 306 309 314 318 320 323 324 325 326 329 330 330 331 330 330 330 327 322 320 323
324 323 321 319 317 316 314 313 312 312 311 310 309 308 306 304 302 301 301 301 301 301 300 300 300 300 300 300 299 300 299 298 299 299 298 299 299 300 300 299 298 298 297 297 297 297 297 297 297 297 297 298 298 298 298 298 298 298 298 298 298 298 298 298 299 300 302 307 312 316 319 322 323 324 327 328 329 330 329 329 330 329 326 321 320
322 320 318 316 314 313 312 311 311 310 310 308 306 304 302 301 301 301 301 301 301 300 300 299 299 298 298 298 298 298 299 299 298 298 298 298 298 298 298 298 298 297 297 297 297 297 297 297 297 297 297 298 298 298 298 298 298 298 298 298 298 298 298 298 298 298 299 300 304 310 315 318 321 322 324 325 327 329 328 327 327 328 328 324 319
318 316 315 313 312 311 311 310 310 309 307 305 303 301 300 300 300 300 300 300 300 299 299 298 298 297 297 297 297 297 298 298 297 297 297 297 297 297 297 297 297 297 297 297 297 297 297 297 297 297 297 297 298 298 298 298 298 298 298 298 298 298 298 298 298 298 298 298 299 303 309 314 317 319 322 323 324 327 328 327 326 326 327 326 321
315 314 313 311 311 310 310 309 308 306 304 301 300 300 300 300 300 300 300 299 299 298 298 297 297 297 297 296 296 296 297 297 296 296 296 296 296 296 296 297 297 297 296 297 297 297 297 297 297 297 297 297 297 297 298 298 298 298 298 298 298 298 298 298 298 298 298 298 298 299 302 308 313 316 318 320 322 324 326 327 328 327 327 326 323
313 312 311 310 310 309 308 306 305 303 301 300 300 299 299 299 299 299 299 298 298 298 298 297 296 297 296 296 296 296 296 296 296 296 296 296 296 296 296 296 296 296 297 297 297 297 297 297 297 297 297 297 297 297 298 298 298 298 298 298 298 298 298 298 298 298 298 299 298 298 299 302 308 313 316 317 319 322 324 326 328 328 328 326 324
312 311 310 309 308 307 306 303 301 300 299 299 299 299 299 299 299 299 299 298 298 298 298 297 296 296 296 296 296 296 296 296 295 295 296 296 296 296 296 296 296 297 297 296 296 297 297 297 297 297 297 297 297 298 298 297 298 298 298 298 298 298 298 298 298 298 298 298 298 299 298 299 303 308 313 315 317 320 323 324 325 328 329 327 325
311 310 309 308 306 305 303 300 299 299 299 299 299 299 299 298 299 298 298 298 298 298 298 297 296 296 296 296 296 296 296 295 295 295 295 296 296 295 296 296 296 296 297 297 296 296 296 296 296 297 297 297 297 297 297 297 297 297 297 297 298 298 298 298 298 298 298 298 298 298 299 298 299 303 308 312 314 317 320 322 324 326 328 329 327
310 309 307 306 304 302 300 299 299 298 299 299 298 298 298 298 298 298 298 297 297 297 297 296 296 296 296 296 295 295 295 295 295 295 295 295 295 295 295 295 295 296 296 296 296 296 296 296 296 296 296 297 297 297 297 298 298 297 298 298 298 298 298 298 298 298 298 298 298 298 299 299 298 299 303 308 312 314 317 320 323 324 326 329 329
308 307 305 303 302 300 299 299 298 298 298 298 298 298 298 298 298 298 297 297 296 296 297 296 296 295 295 295 295 295 295 295 295 295 295 295 295 295 295 295 295 294 295 296 295 296 296 296 296 296 296 296 297 297 297 297 298 298 298 298 298 298 298 298 298 298 298 298 298 298 298 299 299 298 299 302 307 311 314 317 320 322 324 326 328
306 304 303 301 300 299 298 298 298 298 298 298 298 298 298 298 298 297 297 296 296 296 296 296 295 295 295 295 295 295 295 295 295 295 295 295 295 294 294 294 294 294 294 294 295 295 295 295 295 295 296 296 297 297 297 297 298 298 298 298 298 298 298 298 298 298 298 298 298 298 298 298 299 299 298 299 302 306 311 314 317 320 321 323 326
304 303 301 300 299 298 298 298 298 298 298 298 298 298 298 298 297 297 297 296 296 296 296 295 295 295 294 294 294 295 295 294 294 295 294 294 294 294 294 294 294 294 294 294 295 295 294 295 295 295 295 296 296 297 297 298 298 298 298 298 298 298 298 298 298 298 298 298 298 298 298 298 298 299 299 299 299 301 306 311 314 317 320 321 324
303 301 300 298 298 298 298 298 298 298 297 297 298 297 297 297 297 298 297 296 296 295 295 295 294 294 294 294 295 294 294 294 294 294 294 294 294 294 294 293 293 294 294 294 294 294 294 294 294 295 295 295 296 296 297 298 298 298 298 298 298 298 298 298 298 298 298 298 298 298 298 298 299 299 299 299 299 299 301 306 311 315 317 320 322
301 299 298 298 298 297 298 297 297 297 297 297 297 297 297 297 297 297 297 296 296 295 295 294 294 294 294 294 294 294 294 294 294 294 294 294 294 293 293 293 293 294 294 294 294 294 294 294 294 294 294 294 295 296 297 297 298 298 298 298 298 298 298 297 297 297 297 297 297 298 298 298 298 299 299 299 299 299 299 302 307 311 315 318 320
300 298 297 297 297 297 297 297 297 297 297 297 297 297 297 297 297 297 296 296 296 295 294 294 294 294 294 294 294 294 294 294 294 294 294 294 294 293 293 293 293 293 294 294 294 294 294 294 294 294 294 294 295 296 296 297 298 298 298 298 298 298 297 297 297 297 297 297 297 297 297 297 298 298 299 299 299 299 299 299 302 307 312 315 318
298 297 297 297 297 297 297 297 297 296 296 296 297 297 297 298 298 297 296 296 295 295 294 294 294 294 294 294 294 294 294 294 294 294 294 293 293 293 293 293 293 293 293 294 294 294 294 294 294 294 294 294 295 296 296 296 297 297 297 298 298 298 297 297 296 296 296 296 296 297 297 297 297 297 298 298 299 299 299 299 299 303 308 313 316
298 297 297 297 297 297 297 297 296 296 296 296 296 297 297 298 298 296 296 295 295 295 294 294 294 294 294 293 293 293 293 293 293 293 293 293 293 293 293 293 293 293 293 294 294 294 294 294 293 293 294 294 295 296 296 296 297 297 297 297 297 297 297 296 296 296 296 296 296 296 296 296 296 296 297 298 298 299 299 299 299 299 304 309 313
297 297 297 297 297 297 296 296 296 296 296 296 296 296 297 297 297 296 295 296 296 296 295 295 295 295 295 294 293 293 293 293 293 293 293 293 292 293 292 293 293 293 293 293 294 294 294 293 293 293 294 294 295 296 297 296 296 296 296 296 296 296 296 296 296 296 296 296 296 295 295 295 295 296 296 297 298 298 298 298 299 298 300 304 310
297 297 297 297 296 296 296 296 296 296 296 296 296 296 296 296 296 296 296 296 297 297 296 296 296 296 295 295 293 293 293 293 293 293 293 292 292 292 292 292 292 292 293 293 293 293 293 293 293 293 294 294 295 296 297 296 295 295 295 295 295 295 295 295 296 296 296 295 295 295 295 295 295 295 296 296 297 298 298 298 298 299 299 300 306
297 297 297 296 296 296 296 296 296 296 296 296 296 296 296 296 296 296 296 296 296 297 297 296 296 296 296 295 294 292 293 293 293 293 293 292 292 292 291 291 292 292 292 293 293 293 293 293 293 293 294 295 296 296 296 296 295 295 295 295 295 295 295 295 295 295 295 295 295 295 295 295 294 295 295 296 296 297 298 298 298 298 299 298 301
296 296 296 296 296 296 296 296 296 296 296 296 296 296 295 295 296 296 296 296 296 296 297 297 297 296 296 295 293 292 292 293 293 293 293 292 292 291 291 291 291 292 292 292 292 293 293 293 293 293 294 295 296 296 296 296 295 295 295 294 295 295 295 295 295 295 295 295 295 295 294 294 294 294 295 296 297 297 298 298 298 298 299 298 299
296 296 296 296 296 296 296 296 296 296 296 296 295 295 295 295 295 295 295 296 296 296 297 298 297 297 297 295 293 292 293 293 293 293 292 292 291 291 290 291 291 291 291 292 292 292 292 292 293 294 295 296 296 296 296 295 294 294 294 294 294 295 295 295 295 295 295 295 295 294 294 294 294 294 295 296 297 298 298 298 298 298 298 298 298
296 296 296 296 296 296 296 296 296 296 296 296 295 295 295 295 295 295 295 295 295 295 296 297 298 297 297 295 292 292 293 293 293 293 292 292 291 291 290 291 291 291 291 291 292 292 292 293 294 295 295 296 296 296 295 295 294 294 294 294 294 294 295 295 295 295 295 295 294 294 294 294 293 294 295 297 298 298 298 298 298 298 298 298 298
296 296 296 296 296 296 296 296 296 296 296 295 295 295 295 295 295 295 295 296 296 295 296 296 297 297 296 293 292 293 293 293 293 292 292 291 291 291 291 291 291 291 291 292 292 293 293 294 294 295 295 296 296 296 295 295 294 294 294 294 294 294 295 295 295 295 295 294 294 293 293 294 293 294 295 297 298 298 298 299 299 298 298 298 298
295 296 296 296 296 296 296 296 296 296 295 295 295 295 295 295 295 295 295 296 296 296 295 295 296 296 294 292 292 293 293 293 292 292 291 291 291 291 291 291 291 292 292 292 293 293 293 294 295 295 296 296 296 296 295 294 294 294 294 294 294 294 294 295 295 295 294 294 293 293 293 293 294 294 295 298 298 298 298 299 299 298 298 298 298
295 296 296 296 296 296 296 296 296 295 295 295 295 295 295 295 295 295 295 295 295 296 296 295 295 295 294 292 293 293 293 292 292 292 291 291 291 291 292 292 292 292 292 293 293 293 293 294 295 295 295 295 296 295 295 295 294 294 294 294 294 294 294 294 294 294 294 293 293 293 293 293 294 294 295 298 298 298 298 299 299 299 298 298 297
295 296 296 296 296 296 296 295 295 295 295 295 295 295 295 294 295 294 294 295 295 295 296 295 294 294 294 293 293 293 293 292 292 291 291 291 291 292 292 292 292 292 292 292 293 293 293 294 295 295 295 295 295 295 295 295 294 294 294 294 294 294 294 294 294 293 293 293 293 293 292 294 295 294 296 298 298 298 299 299 299 299 299 298 298
295 296 296 296 295 296 295 295 295 295 295 295 295 295 295 295 294 294 294 295 295 295 295 295 294 294 293 292 292 292 292 292 291 291 291 291 291 291 291 292 292 292 292 292 292 293 293 294 294 294 295 295 295 295 296 295 295 294 294 294 294 294 294 294 293 293 293 293 293 293 292 294 295 294 295 297 297 298 300 299 298 299 299 299 298
295 295 295 295 295 295 295 295 295 295 295 295 295 295 295 294 294 294 294 294 294 295 295 294 294 293 293 292 292 292 292 292 291 291 291 291 291 291 291 292 292 292 292 292 292 292 293 293 294 294 295 295 295 296 296 296 295 295 294 294 294 294 293 293 293 293 293 293 293 293 292 293 294 293 294 296 297 298 300 300 298 298 298 298 298
295 295 295 295 295 295 295 295 295 295 295 295 295 295 294 294 294 294 294 294 294 294 294 294 293 293 293 292 292 292 291 291 291 291 291 291 291 291 291 291 292 292 292 292 292 292 293 293 293 294 295 295 295 296 297 297 296 295 294 294 294 293 293 293 293 293 293 293 293 293 292 293 295 294 293 296 297 298 300 300 298 297 297 297 298
295 295 295 295 295 294 294 294 294 295 295 295 295 294 294 295 294 294 294 293 294 293 293 293 293 293 292 292 292 292 291 291 291 291 291 291 291 291 291 291 291 291 291 291 291 292 292 293 293 294 295 295 295 296 296 297 296 295 294 294 294 293 293 293 292 292 293 293 293 293 293 294 295 295 294 295 297 298 299 299 298 297 297 297 297
294 295 295 295 294 294 294 294 294 294 294 294 294 294 294 294 294 294 294 293 293 293 293 293 293 292 292 292 291 291 291 291 290 290 291 291 291 291 291 291 291 291 291 291 291 291 292 292 293 294 295 295 294 295 296 296 296 296 295 294 294 293 293 293 292 292 292 293 293 293 293 294 296 296 295 294 295 297 299 299 297 297 297 297 298
Wind_Speed
3 3 2 3 2 1 1 1 1 1 2 2 3 3 3 4 4 5 6 7 7 7 8 9 10 11 12 12 13 13 14 15 15 16 17 18 18 18 18 18 18 18 19 20 21 20 21 20 20 21 19 17 18 18 19 20 22 22 22 22 22 22 20 18 17 16 14 14 14 14 13 13 15 14 13 14 13 11 11 10 10 10 9 8 8
4 4 2 1 2 1 1 2 1 1 1 2 2 3 4 4 6 7 8 8 9 9 10 11 12 13 13 14 14 15 16 16 17 17 18 18 18 17 17 17 17 17 17 17 18 17 18 18 18 19 17 16 17 17 18 19 20 22 23 23 22 23 21 19 18 17 15 14 14 14 13 12 14 16 14 14 14 12 11 11 11 11 10 9 9
5 5 3 1 1 1 2 2 2 2 2 3 3 4 4 5 7 8 8 9 10 11 11 12 12 12 13 14 15 16 17 17 17 17 17 17 16 15 14 15 15 15 14 14 15 14 15 15 15 16 15 16 19 19 19 18 19 21 22 22 22 23 23 21 19 17 16 14 14 15 14 12 12 16 16 15 15 13 11 12 12 12 11 10 10
6 5 3 3 3 2 2 2 3 3 3 4 4 5 5 6 7 8 9 9 10 11 12 12 12 13 13 14 14 15 15 15 15 15 15 15 14 13 11 10 10 10 11 12 13 13 13 12 13 14 14 14 17 18 18 17 18 19 20 21 21 22 23 23 20 17 17 16 14 14 14 13 11 14 17 17 16 15 13 13 13 13 12 11 11
6 5 4 4 4 3 3 4 4 4 4 5 5 5 6 6 8 9 9 10 11 11 11 12 13 14 14 14 14 14 14 14 14 14 14 13 12 11 10 8 7 7 10 11 12 12 13 13 13 13 12 10 12 14 15 16 18 18 19 20 20 20 20 22 22 19 17 16 16 15 14 14 12 12 16 19 17 16 15 14 14 14 13 13 12
7 6 6 6 5 4 4 5 4 4 4 5 6 6 6 7 8 10 10 11 11 12 12 13 13 13 14 14 14 14 14 14 14 14 13 12 10 10 10 9 9 9 10 11 12 12 12 13 12 12 12 10 10 12 14 15 18 19 19 20 21 20 18 19 23 22 19 18 18 17 15 14 13 12 13 18 19 17 16 15 14 15 14 14 14
7 7 7 6 6 4 4 5 4 4 5 5 6 7 7 8 9 10 11 11 12 13 13 13 13 12 13 14 14 14 14 14 13 13 12 10 9 9 10 10 10 11 12 13 13 13 12 13 13 13 13 12 11 12 13 14 16 17 17 18 20 22 20 17 19 23 22 21 21 19 16 15 15 13 12 15 19 19 17 16 15 15 15 15 15
7 7 7 6 5 4 4 5 4 5 5 6 6 7 8 9 9 10 11 12 13 13 13 12 12 11 12 13 13 13 13 13 12 11 11 10 10 10 10 11 12 13 14 15 15 15 15 14 14 15 15 14 13 12 13 13 14 15 14 15 17 20 21 19 17 20 22 23 24 22 18 16 17 15 13 13 17 20 19 18 17 16 16 16 17
7 6 6 6 5 4 5 5 5 5 5 6 6 7 8 10 11 12 12 13 13 12 12 11 10 10 11 12 13 14 13 13 11 11 11 11 11 11 12 12 13 14 15 15 16 16 16 15 14 14 14 14 14 14 14 14 15 16 15 13 14 16 18 18 17 16 20 22 23 23 21 18 18 17 15 14 15 19 20 18 18 18 18 18 18
7 5 5 5 4 4 5 5 6 6 6 7 8 8 10 11 13 14 14 14 14 12 11 10 9 10 11 12 13 13 12 12 11 11 12 12 12 12 12 13 13 14 14 15 15 16 16 15 14 13 13 13 13 14 14 14 16 18 18 15 13 14 16 17 16 15 17 20 22 24 24 22 20 18 16 16 14 17 20 19 20 20 19 19 19
6 6 5 5 5 5 6 7 7 8 9 10 11 11 12 13 14 15 16 16 16 14 13 11 11 11 12 12 11 11 11 10 11 11 11 11 11 11 12 12 13 13 14 14 15 16 17 17 16 15 14 13 13 14 15 15 15 17 19 18 16 15 14 16 16 15 14 17 21 24 26 25 22 20 17 16 16 16 19 20 21 21 20 20 20
7 7 6 6 7 7 8 9 9 10 11 12 13 13 13 14 14 15 15 16 16 15 15 13 12 10 10 10 9 9 11 11 10 10 10 10 10 11 12 13 14 14 15 16 16 16 17 18 18 17 16 14 14 14 14 15 16 16 18 19 19 17 15 15 14 13 13 14 18 21 25 25 23 22 20 17 16 16 18 20 22 23 22 21 22
8 8 8 8 8 9 9 10 11 12 13 13 13 14 15 15 14 13 13 13 14 14 13 13 12 9 7 8 9 9 11 12 11 10 9 10 11 13 14 15 16 16 17 18 18 18 17 18 19 20 18 16 15 14 14 15 16 17 18 19 21 20 18 16 13 13 13 14 15 15 20 25 24 24 23 21 19 17 18 20 21 24 24 23 23
9 9 9 10 10 10 10 11 11 13 14 14 15 15 15 14 13 12 12 13 13 13 13 13 13 12 10 9 8 9 10 11 11 11 11 12 14 16 17 17 18 18 18 18 18 18 17 17 18 20 20 18 17 16 16 16 16 16 17 18 20 21 21 18 15 14 14 15 14 13 15 20 25 27 26 24 23 20 17 19 20 22 26 25 24
10 10 11 11 11 11 11 11 12 13 14 15 15 14 12 11 11 12 12 13 14 15 16 15 15 15 14 11 9 9 9 10 10 11 12 13 15 16 16 16 17 17 16 16 16 16 16 15 16 19 20 19 18 18 17 17 16 16 16 16 17 19 21 19 16 16 16 16 16 17 16 17 23 30 28 24 24 23 19 19 21 22 25 27 26
11 12 12 12 12 11 11 11 11 12 13 13 12 11 10 10 11 12 12 13 14 16 16 16 16 15 13 10 11 8 5 7 9 10 10 11 12 13 14 15 15 14 14 15 15 15 15 15 15 17 19 19 19 19 19 18 17 17 16 16 16 17 18 18 17 17 17 17 17 19 19 18 20 23 27 26 25 25 22 20 21 23 24 26 29
13 13 13 12 11 11 10 10 9 10 10 10 10 10 10 11 11 12 12 13 14 15 15 16 15 13 11 9 8 5 6 12 12 7 6 8 10 12 13 14 15 15 15 15 15 15 15 16 16 17 18 20 20 20 20 20 19 18 18 17 16 16 16 17 17 17 19 18 18 18 19 20 20 19 21 26 26 26 25 23 22 25 25 25 29
13 13 12 11 11 10 8 8 7 7 8 9 10 10 10 11 11 12 12 13 13 13 13 13 12 11 10 9 7 6 10 15 13 10 9 7 8 12 13 14 15 14 15 15 16 16 16 17 17 18 19 19 20 20 20 20 19 19 18 17 16 15 16 16 16 18 19 19 19 18 19 20 19 19 19 21 26 28 27 26 23 25 27 26 28
11 10 10 9 9 7 6 5 6 6 7 9 9 10 10 11 11 11 11 11 10 10 9 9 9 9 9 9 9 10 12 13 13 16 15 11 11 12 14 17 17 16 17 17 18 18 17 18 19 20 20 20 20 20 20 19 19 18 18 17 16 15 15 16 16 18 19 19 19 19 19 20 19 19 19 18 23 28 29 29 26 25 28 29 28
9 8 7 6 5 4 4 4 6 7 8 9 9 10 10 10 10 10 9 9 8 8 7 7 7 7 8 8 8 9 10 11 12 14 16 18 18 15 16 17 17 18 20 20 20 19 19 19 20 21 21 21 21 21 21 21 21 20 19 18 18 17 16 16 16 18 19 18 19 19 19 20 20 19 20 20 21 25 30 32 31 27 27 30 30
7 6 4 3 3 3 3 4 6 7 8 9 9 9 9 9 9 8 8 8 7 7 7 7 7 7 8 8 7 6 6 7 9 11 14 18 20 22 23 21 19 20 21 22 21 20 21 21 21 21 22 23 23 22 22 22 23 23 22 21 20 19 18 17 16 18 20 20 20 20 19 19 20 20 20 22 22 23 26 32 36 32 28 29 32
6 4 3 2 2 2 3 4 5 6 7 8 8 8 8 8 7 7 7 7 7 8 8 8 9 9 9 9 8 8 8 8 10 13 15 16 18 22 25 25 24 23 22 22 22 21 22 23 23 22 22 24 25 25 24 23 23 24 24 24 23 21 20 19 17 17 18 20 21 21 21 20 20 20 20 21 24 25 25 28 34 36 30 28 32
5 4 4 3 2 3 4 4 5 6 6 6 6 6 7 6 6 6 7 7 8 9 9 9 10 10 11 11 12 12 12 13 15 16 18 19 20 22 24 24 25 24 23 22 21 21 22 24 25 25 25 25 26 27 26 24 22 23 24 25 25 24 23 22 20 18 17 19 21 22 22 22 21 21 20 20 22 27 28 26 28 33 33 29 30
6 5 4 3 3 3 4 4 5 5 5 5 5 5 5 5 5 6 6 7 8 9 9 9 10 10 11 12 12 13 13 14 15 16 18 19 20 21 22 24 24 24 24 22 21 20 22 25 26 27 28 27 27 27 27 26 24 23 23 24 25 25 24 23 22 21 19 18 19 21 22 23 22 22 21 20 20 24 29 29 28 31 33 31 29
7 6 5 4 3 4 4 4 4 5 4 4 4 4 4 4 5 6 6 7 8 8 8 9 9 9 11 11 11 12 13 14 14 15 16 17 19 20 21 22 23 23 23 23 23 21 22 25 27 27 29 30 30 29 28 28 27 26 25 24 24 25 26 25 23 22 22 20 19 19 21 23 23 23 22 21 19 21 27 30 30 31 34 34 31
7 6 5 4 4 3 3 3 3 3 3 3 3 3 4 4 5 5 5 7 8 8 8 8 8 9 10 10 11 12 13 14 14 16 17 18 20 22 23 23 23 23 23 23 24 24 24 26 27 28 30 31 32 32 31 30 30 29 28 27 25 25 26 26 25 24 22 22 21 20 20 22 23 24 24 22 20 20 24 27 28 30 35 37 34
7 6 5 5 4 3 3 3 2 2 1 2 2 3 4 4 5 5 6 7 8 8 8 7 7 9 9 10 11 12 13 14 15 16 17 19 20 21 23 25 25 26 25 24 25 26 28 28 28 29 31 32 32 32 32 32 31 31 30 30 28 27 26 26 26 26 24 22 22 21 21 22 23 23 25 25 22 20 22 23 24 28 35 40 38
7 7 6 5 4 3 2 2 1 1 0 1 2 3 3 4 5 5 6 6 7 7 7 7 8 9 9 10 10 11 13 13 14 16 17 18 19 20 22 23 25 26 27 28 28 28 30 33 32 32 33 34 34 33 32 32 31 32 32 32 32 31 29 28 27 27 26 25 23 21 21 22 23 23 24 26 25 22 21 22 24 26 33 42 43
8 7 6 5 4 3 2 2 2 1 0 0 1 2 3 4 5 5 5 6 6 6 7 8 8 9 9 9 10 11 12 13 14 15 16 18 19 20 21 22 22 23 25 28 30 29 30 33 34 35 35 35 36 35 33 33 32 31 32 33 34 34 34 32 31 30 29 28 26 24 22 22 23 24 24 25 27 25 23 23 24 24 26 37 44
8 7 5 5 4 3 2 2 2 2 1 1 1 1 2 3 4 4 5 5 5 6 8 8 9 8 8 8 9 10 12 13 14 15 16 18 19 21 21 21 20 20 21 24 28 30 31 32 32 33 35 36 36 36 35 34 33 33 33 34 34 35 36 36 35 34 33 32 30 28 25 23 23 24 25 25 27 28 26 24 24 24 23 27 36
8 6 5 4 4 3 3 2 2 2 2 1 0 1 2 2 3 4 5 5 5 7 9 9 8 8 8 8 9 10 11 13 14 15 17 18 20 20 20 20 19 19 19 21 26 30 31 32 33 32 34 35 35 35 35 34 34 34 36 36 37 37 38 40 40 39 38 37 35 32 29 26 24 24 25 26 27 28 29 27 25 25 24 22 26
8 6 5 4 4 3 3 3 3 3 2 1 1 1 1 1 3 4 5 5 6 8 9 9 8 8 8 9 9 11 12 13 14 15 16 18 19 20 20 19 18 18 19 21 26 31 30 30 33 34 33 35 35 34 35 35 34 35 37 38 39 40 41 42 43 43 42 42 41 38 34 30 27 25 25 26 27 28 30 30 27 26 25 22 22
7 6 5 4 4 5 5 4 4 3 2 2 2 1 0 1 3 4 5 5 7 8 9 9 9 9 9 10 11 12 13 14 15 15 16 18 20 21 21 20 19 17 20 23 26 32 33 31 32 34 35 36 36 35 35 36 36 37 38 40 41 43 44 44 45 45 46 45 45 43 39 34 30 26 24 25 27 28 29 31 30 28 27 25 22
7 6 5 5 6 6 6 5 5 4 3 3 2 1 1 2 3 4 5 5 6 8 9 10 11 11 11 11 12 13 14 14 15 16 17 19 21 22 22 21 21 19 19 23 26 30 34 34 34 36 37 38 38 37 36 37 39 40 41 42 43 44 45 45 46 46 47 47 47 45 43 37 31 27 24 23 25 27 29 31 32 31 29 27 25
7 7 7 7 7 7 7 6 5 5 4 3 3 2 1 2 3 4 4 5 6 7 9 10 11 12 12 13 13 14 14 14 15 17 19 21 22 22 22 22 22 21 20 21 24 28 33 36 36 38 39 39 39 38 38 38 40 41 43 44 45 46 46 46 46 47 48 48 47 46 43 39 33 28 24 22 22 24 27 30 32 33 32 30 28
7 8 9 9 9 8 7 6 6 5 4 3 3 2 1 2 3 4 4 5 6 6 8 9 11 12 14 14 14 14 14 15 17 18 20 21 22 23 23 22 22 23 22 21 23 26 31 35 37 38 40 41 40 39 39 40 41 41 43 45 46 47 47 47 47 48 49 48 47 45 42 39 36 31 26 22 19 21 24 27 31 33 34 33 31
8 10 10 10 9 8 7 6 6 5 4 4 3 2 1 2 3 4 4 4 5 5 6 9 11 13 14 15 15 15 15 16 18 20 21 22 23 24 24 24 24 24 24 23 24 25 28 34 37 39 40 41 41 40 39 41 43 43 44 45 46 47 48 49 49 49 50 50 47 44 41 39 36 33 30 26 22 20 21 24 28 32 34 35 34
10 11 11 10 10 8 7 7 6 5 4 4 2 1 1 1 3 4 3 4 5 5 5 8 11 12 14 15 15 15 16 17 19 21 22 23 24 24 25 26 26 26 26 25 26 27 29 33 37 40 41 41 41 41 40 41 42 44 46 48 48 47 48 51 52 52 51 49 46 42 40 38 37 36 36 34 29 24 21 22 26 30 33 35 36
11 11 11 10 10 8 8 7 6 5 4 3 2 2 1 2 3 3 3 4 5 5 5 7 9 11 13 15 16 16 17 19 20 21 22 23 24 25 26 26 26 26 27 27 28 29 31 34 37 39 41 41 41 42 42 41 42 42 44 49 52 52 50 50 52 54 52 49 45 40 37 38 40 41 41 39 34 28 24 22 24 28 32 35 37
12 11 10 10 9 9 8 7 6 5 4 3 3 2 1 2 2 2 3 3 4 5 6 6 8 10 12 14 15 16 17 18 19 20 21 23 25 26 26 26 26 27 28 29 30 31 33 36 37 38 39 40 41 42 43 43 44 45 45 46 51 54 54 52 52 52 52 49 44 40 40 42 45 45 43 39 33 28 25 22 22 26 30 33 36
12 11 10 10 9 8 8 7 6 5 4 3 3 2 1 2 2 1 2 3 4 5 5 5 7 9 11 13 14 15 16 17 17 19 20 22 24 26 26 26 27 28 29 30 31 33 34 36 37 38 39 40 42 43 44 44 44 46 46 47 49 51 53 55 54 51 48 45 44 45 47 47 47 45 42 37 32 28 25 23 20 22 27 31 34
11 11 11 10 9 8 7 7 6 5 4 4 3 2 2 1 1 1 2 3 5 5 4 4 5 7 10 12 13 13 14 15 17 19 20 21 23 24 25 26 27 28 30 30 31 32 33 35 36 37 39 41 42 43 44 44 44 45 47 48 50 51 53 56 57 52 46 44 46 50 51 48 45 43 41 36 31 28 26 23 20 19 24 29 33
12 11 11 10 10 9 8 7 6 5 5 4 3 3 2 2 1 1 2 3 4 5 4 3 4 6 8 10 10 11 13 15 17 19 20 21 23 24 24 25 26 27 29 30 31 31 32 33 35 36 38 40 42 43 44 45 45 46 47 47 49 52 53 54 55 55 51 48 49 51 50 47 43 41 40 35 30 28 26 23 21 19 20 26 31
12 11 11 11 10 9 8 7 6 5 5 4 4 3 2 2 1 1 1 2 3 4 4 3 4 6 8 8 9 10 12 15 18 20 21 21 23 24 25 25 25 26 27 28 29 30 30 32 34 36 37 39 42 44 44 45 46 47 47 47 48 49 50 50 51 54 54 51 48 48 48 47 43 40 38 33 28 28 26 23 22 21 20 22 28
12 12 11 11 10 9 8 7 6 6 5 4 4 3 3 2 2 1 1 2 2 3 4 4 5 8 9 8 8 9 11 15 18 20 21 22 23 24 25 26 26 26 26 27 27 27 28 30 32 35 36 38 42 43 43 44 46 48 48 48 48 47 48 48 49 52 53 48 45 44 45 45 42 39 37 32 28 28 26 23 21 21 21 22 26
12 12 12 11 10 9 8 7 6 6 5 5 4 4 3 2 2 1 1 1 2 3 4 5 6 8 9 8 9 10 12 15 19 20 21 23 24 26 26 27 27 28 28 28 29 28 28 28 31 33 35 36 39 41 41 42 44 46 47 48 48 46 46 47 47 49 48 44 42 42 42 42 40 38 38 34 31 30 26 23 20 20 21 22 25
12 12 11 11 10 10 9 8 7 6 6 6 5 4 4 3 2 1 0 1 2 3 4 5 7 8 7 7 8 10 12 15 18 20 22 24 25 27 27 28 29 29 29 30 30 29 29 29 30 32 34 35 37 38 39 41 43 44 44 45 46 46 46 46 47 48 46 42 40 38 39 41 40 38 39 39 36 32 27 23 20 18 19 21 24
13 12 12 11 11 10 9 9 8 7 7 6 6 5 4 3 3 2 0 1 2 3 4 5 6 7 6 6 8 10 12 15 18 19 22 24 26 27 28 29 30 30 30 30 29 28 29 30 31 31 32 35 37 37 38 41 43 44 44 45 46 45 46 46 47 48 46 43 39 36 37 42 42 39 40 40 37 33 27 22 18 16 16 18 22
13 12 12 12 11 11 10 10 9 8 8 7 6 6 5 4 3 2 1 1 2 3 3 4 5 5 4 5 7 9 12 15 17 20 22 24 25 27 29 30 31 31 31 31 30 30 30 31 32 32 33 35 37 37 38 41 43 45 46 48 48 46 47 47 46 46 46 43 39 37 39 43 42 40 40 39 36 32 27 20 14 10 10 12 16
14 13 13 13 13 12 11 10 9 8 8 8 7 6 5 5 3 3 2 0 1 2 2 3 3 2 3 5 7 9 12 15 17 20 22 24 26 27 29 30 31 32 33 34 33 33 33 33 35 35 35 37 39 40 41 42 44 45 45 47 47 46 45 45 43 43 44 42 39 38 39 42 41 39 38 37 35 31 25 18 11 7 6 7 9
15 14 14 14 14 13 12 11 10 9 8 8 8 7 6 5 4 3 2 2 1 0 0 0 1 1 2 4 6 9 12 15 17 19 22 24 26 27 28 30 31 33 34 35 35 35 36 36 38 38 38 40 42 43 43 44 45 45 44 44 45 43 42 41 40 40 42 41 39 36 36 38 38 35 33 32 33 31 24 16 11 8 7 7 7
Wind_Direction
276 261 289 308 316 326 273 249 215 208 188 213 234 236 243 254 262 267 275 279 278 282 287 292 295 294 294 295 296 298 299 301 301 301 300 300 301 303 304 304 306 307 308 308 309 311 311 312 315 316 320 322 318 312 305 302 302 299 297 295 295 297 300 303 305 307 312 317 316 313 302 268 241 238 238 234 231 228 227 227 227 229 228 225 228
252 246 238 282 277 281 279 248 239 270 233 242 260 265 273 279 283 285 284 287 289 289 290 291 290 288 287 288 290 293 294 295 295 295 295 296 299 302 302 304 306 308 310 312 314 319 320 322 327 329 334 332 325 322 316 310 307 304 301 297 290 286 290 294 295 299 302 307 313 312 311 290 251 238 236 233 232 229 224 227 228 230 231 226 225
229 234 208 184 218 222 254 264 273 282 270 272 282 286 287 289 290 289 285 285 289 289 287 287 285 285 285 287 290 291 291 291 292 293 294 295 298 303 308 312 316 318 320 320 322 325 325 328 330 332 342 340 331 330 329 325 321 315 309 306 295 281 280 289 290 288 291 295 304 307 310 307 273 246 237 233 233 230 223 226 228 229 231 227 223
202 208 199 179 185 198 236 256 262 264 270 285 291 287 287 291 289 285 284 284 285 286 286 287 288 289 291 293 294 293 293 293 295 297 298 298 299 304 311 317 322 323 321 321 323 322 320 322 326 331 342 339 330 332 333 332 334 328 321 317 309 292 283 289 293 286 283 289 294 302 306 308 297 262 242 235 235 230 223 224 229 230 231 228 222
186 182 185 185 191 204 231 239 253 271 282 293 294 292 290 293 291 287 288 288 288 288 290 296 299 301 302 302 301 299 300 301 304 304 302 301 299 298 295 293 295 297 304 312 313 312 315 319 323 330 338 333 323 326 329 330 334 334 335 330 320 312 296 289 294 288 283 287 289 293 300 302 305 287 255 240 237 232 224 223 228 230 230 228 221
187 187 191 194 208 219 240 253 268 281 287 295 298 300 295 290 292 292 292 292 293 294 298 305 308 311 310 307 305 304 304 304 304 303 300 296 291 286 280 278 285 291 296 301 302 306 314 318 319 323 328 328 322 318 320 325 326 326 334 338 330 327 316 298 290 282 281 288 288 285 288 294 297 298 275 249 240 235 227 223 227 230 230 228 222
198 202 200 204 224 240 251 259 267 273 283 290 291 294 289 286 288 289 291 294 297 300 304 308 311 315 313 308 305 303 302 301 301 298 291 286 280 274 271 276 287 296 298 300 302 305 308 310 312 316 319 322 322 315 313 322 325 319 325 336 333 330 328 315 290 280 285 289 288 285 279 285 289 293 291 264 246 238 229 223 227 230 229 228 225
211 211 215 222 236 251 257 259 265 271 278 282 283 285 285 287 288 290 293 296 299 302 306 310 314 317 314 310 307 304 303 302 301 295 285 282 278 273 274 282 294 302 305 306 307 308 309 310 310 314 318 320 319 313 308 315 320 315 318 327 324 320 324 324 305 288 288 287 287 287 280 280 285 287 292 280 254 241 232 222 224 230 229 227 227
221 217 225 233 235 245 254 259 267 274 282 288 286 286 290 295 298 302 303 305 307 308 313 316 320 323 318 313 311 308 305 303 301 292 284 282 282 281 284 292 301 307 309 311 312 312 313 314 315 318 322 324 321 315 307 303 306 307 311 318 319 319 319 318 315 298 286 285 283 281 279 278 280 284 290 290 266 245 236 225 221 227 229 227 228
229 230 237 245 249 258 265 269 277 289 297 301 302 302 304 306 308 310 310 312 314 315 319 322 324 326 320 313 308 304 302 301 298 291 284 282 282 286 292 299 307 312 313 314 315 314 314 314 315 317 321 325 325 320 313 303 299 302 305 311 317 323 322 316 316 308 292 284 275 272 276 277 275 278 282 289 280 254 241 229 221 225 228 227 228
244 253 260 265 273 282 286 289 296 304 308 310 312 313 312 311 311 311 311 311 312 315 319 322 324 325 318 309 299 294 293 292 291 289 285 282 283 286 292 299 305 310 313 314 314 314 314 313 312 313 317 322 323 320 317 310 303 302 304 309 313 315 318 317 316 317 308 290 275 270 272 274 274 273 273 279 281 265 248 234 223 223 227 228 227
250 261 269 275 282 289 294 297 301 307 310 310 310 310 310 310 310 309 308 308 310 312 314 317 321 326 322 307 293 285 282 281 282 283 284 285 288 291 293 296 300 302 305 308 310 310 310 310 309 309 310 312 315 316 315 313 309 307 307 309 312 312 308 308 311 317 315 299 283 271 266 270 274 273 270 269 272 269 256 242 227 221 225 227 228
252 260 271 282 287 290 294 297 301 305 307 308 310 311 313 315 315 313 311 311 309 309 311 315 318 323 321 301 290 283 275 273 273 274 282 293 299 302 302 302 302 301 302 303 306 305 305 306 305 304 305 306 308 310 311 310 310 311 311 310 310 311 309 304 304 306 304 302 297 280 268 268 269 271 270 265 265 267 259 248 235 224 222 226 227
260 268 275 282 286 287 290 293 297 301 305 309 313 315 317 318 320 319 317 316 313 312 314 318 320 319 318 307 291 286 277 266 269 276 284 297 304 307 309 310 310 309 308 306 304 304 303 304 305 302 305 310 311 312 312 311 312 312 312 312 309 308 309 307 303 300 295 297 297 287 277 267 261 263 267 266 263 263 257 247 241 230 224 224 226
269 276 281 284 286 286 288 290 294 299 304 309 312 316 318 318 318 318 317 318 317 317 318 322 323 321 321 316 300 297 274 249 267 288 292 301 308 313 318 321 322 320 316 313 308 308 306 306 308 306 308 316 321 321 319 316 315 313 309 309 309 306 306 307 307 304 299 297 292 286 283 274 264 256 253 260 262 258 254 244 239 236 229 225 225
275 281 285 288 288 288 288 291 295 301 307 310 312 316 316 315 316 315 316 318 318 319 320 322 324 324 326 322 312 312 285 270 294 305 306 315 322 329 335 336 337 333 329 327 322 318 314 313 314 313 316 322 326 327 325 322 317 314 308 304 306 305 303 304 306 307 303 301 298 291 283 277 277 263 246 249 256 253 252 244 235 236 233 228 226
278 282 285 288 289 289 291 297 304 309 312 313 314 316 315 314 315 316 318 320 320 321 322 324 329 333 337 341 334 329 325 324 328 333 330 334 344 351 350 346 346 344 342 341 338 331 325 323 323 322 324 326 328 329 329 327 323 318 313 307 304 300 297 297 299 300 299 299 300 299 291 277 276 276 256 246 249 252 253 249 240 234 233 231 228
277 278 281 284 287 289 296 305 312 314 313 314 315 316 316 315 317 320 321 321 323 325 326 329 335 342 351 4 5 349 337 337 340 340 340 351 1 2 1 358 357 355 351 348 345 341 336 334 334 333 333 332 332 333 332 332 330 326 323 317 309 300 292 289 288 289 290 291 293 295 297 287 273 269 265 250 246 249 254 255 249 235 231 231 229
278 274 274 278 281 287 300 311 315 316 315 315 317 318 317 318 322 324 327 329 331 333 336 339 343 353 6 7 0 351 347 347 347 345 344 344 350 2 10 9 4 2 1 357 351 347 342 339 339 338 338 338 337 337 337 336 335 332 330 325 317 309 299 289 283 279 279 280 283 283 287 291 282 264 260 257 248 243 247 255 253 239 231 230 229
279 270 266 268 274 286 306 316 316 314 314 316 318 320 321 324 330 335 341 344 345 348 354 358 359 7 16 12 5 359 353 352 353 352 346 340 342 351 3 11 11 4 2 0 356 351 348 345 341 340 339 340 342 342 341 339 338 337 335 332 326 320 312 301 288 279 276 274 275 277 276 282 284 270 255 253 251 245 244 249 251 244 235 230 229
270 263 261 263 270 291 309 310 309 309 313 317 319 322 327 333 342 347 351 352 357 6 12 18 21 26 31 28 24 15 5 359 356 358 355 349 347 347 350 358 6 7 4 359 356 353 352 351 348 344 341 342 345 346 345 342 340 340 339 338 335 329 321 314 302 287 280 277 273 273 273 273 277 274 261 250 249 250 247 247 246 244 242 236 229
252 246 242 248 260 281 295 297 302 307 312 317 321 328 335 342 350 353 355 359 8 16 20 26 30 35 36 30 25 19 11 6 5 6 5 0 356 352 351 353 357 3 5 1 357 354 353 352 351 349 347 345 345 347 349 347 342 341 340 339 339 336 331 323 315 303 289 281 276 272 272 270 269 270 267 256 248 249 252 253 246 238 238 236 228
225 222 218 224 246 271 285 293 300 306 313 321 330 337 343 350 357 1 4 9 18 20 21 29 32 33 31 24 20 20 16 14 14 10 6 3 359 355 353 353 355 360 2 1 359 356 354 353 351 352 353 351 348 347 350 351 348 343 341 340 339 338 336 331 324 316 304 290 281 274 271 270 269 268 267 261 252 247 251 257 250 236 232 233 230
209 211 211 215 238 263 278 291 302 312 321 331 338 344 353 1 8 14 18 22 27 25 25 34 35 30 28 27 23 21 21 22 18 10 6 4 358 353 353 353 353 355 358 359 357 358 359 357 354 353 353 354 353 351 351 352 353 349 346 345 343 341 338 335 330 323 315 304 291 281 275 271 269 269 267 265 257 251 250 253 253 241 231 229 231
202 206 208 212 230 254 277 294 309 321 328 334 343 354 5 16 23 27 29 34 37 30 28 33 33 29 29 28 24 22 24 25 18 9 6 1 354 353 355 354 352 352 355 356 355 356 360 0 358 354 353 353 353 354 354 354 354 354 352 350 348 346 343 339 336 330 323 315 305 293 282 275 270 268 268 267 261 256 253 252 252 244 232 226 228
199 204 208 217 233 251 279 298 313 322 324 337 351 7 17 25 33 31 30 38 40 33 31 33 34 36 32 27 25 26 26 21 12 6 3 1 358 356 354 352 350 351 354 357 357 356 358 360 360 356 354 354 352 352 354 355 355 355 354 352 350 350 348 344 341 337 331 322 314 304 291 281 274 268 267 269 265 259 256 256 254 244 230 223 225
199 205 211 220 233 249 271 287 300 305 312 354 10 23 26 28 34 29 29 38 39 36 36 38 40 39 34 31 28 25 23 16 10 7 4 2 3 2 358 355 353 351 351 355 358 358 357 356 357 357 355 353 352 351 351 353 354 354 354 353 351 351 350 348 344 340 336 329 320 312 300 290 281 273 268 268 268 262 257 258 255 240 226 221 222
202 207 211 215 229 244 255 257 243 240 268 38 31 30 27 31 34 30 33 39 35 37 42 44 46 43 37 34 28 23 22 16 9 7 6 5 5 5 5 3 360 355 351 352 356 357 356 353 353 355 354 351 350 350 349 349 352 352 352 352 351 350 350 348 346 342 337 333 328 319 307 297 289 280 271 267 268 265 259 256 255 242 225 220 219
206 207 209 215 229 236 233 219 199 181 132 83 51 43 31 39 43 36 40 41 34 42 52 53 52 46 37 32 26 24 23 16 9 6 6 6 7 7 7 7 4 359 353 350 351 353 353 352 351 349 350 349 348 348 347 348 349 350 349 350 349 349 348 347 345 342 339 335 331 325 314 303 295 287 278 269 266 266 261 256 256 253 235 223 220
205 206 212 220 224 220 208 188 176 170 160 153 79 46 31 44 51 45 49 48 40 54 61 58 56 48 36 31 28 25 22 14 8 7 6 6 7 8 7 5 2 360 356 346 344 348 350 348 349 347 345 346 345 344 344 345 347 347 347 347 347 346 345 344 344 342 340 336 332 328 321 311 300 291 284 274 267 265 263 257 255 258 253 236 225
204 209 216 215 208 195 183 169 160 162 162 155 110 41 31 43 55 55 60 58 51 61 65 62 59 50 38 34 29 25 22 16 10 7 7 7 7 7 6 5 360 355 354 345 337 342 347 344 344 346 344 343 343 341 340 340 342 344 344 345 345 344 343 342 342 341 339 337 335 331 325 317 307 296 286 279 271 265 263 260 254 255 259 250 231
207 211 210 201 189 175 166 159 152 149 148 145 134 77 33 52 69 69 69 68 62 65 67 66 62 51 39 33 29 26 23 15 10 7 6 6 7 7 6 5 1 352 350 347 336 335 343 344 341 343 344 342 342 342 339 337 338 340 341 342 342 342 341 340 339 339 338 337 335 333 328 321 313 302 290 281 274 267 262 260 256 252 254 253 239
207 205 198 185 173 166 160 156 151 146 141 141 136 124 57 58 78 79 72 72 70 70 71 68 63 53 39 32 28 26 21 13 8 5 4 5 5 7 6 4 3 356 348 346 338 333 337 342 341 340 343 342 342 344 343 339 338 337 337 339 340 339 339 338 338 337 336 335 334 333 331 326 318 308 296 283 275 269 263 260 257 253 249 250 246
199 187 185 179 169 166 164 161 158 154 153 152 144 132 79 47 70 83 82 79 76 74 73 67 60 51 40 33 29 24 18 10 7 4 3 5 4 4 4 1 359 357 350 345 340 334 333 338 340 339 341 342 342 345 346 343 340 339 337 337 338 337 337 337 336 335 334 333 332 331 330 328 323 314 302 287 275 269 264 260 257 254 249 247 247
189 176 176 176 173 172 170 169 167 164 165 162 149 136 98 54 63 80 88 89 84 76 70 62 54 48 40 34 29 23 16 9 7 7 6 6 6 3 2 358 353 350 349 345 339 335 332 334 338 339 339 341 342 344 346 344 342 340 338 337 337 336 336 336 334 332 331 330 330 330 329 329 327 320 310 295 278 268 264 260 256 254 251 246 244
186 179 177 177 177 177 176 176 175 171 171 166 156 144 117 74 66 78 90 92 86 75 64 54 46 41 37 32 26 20 14 10 8 9 9 8 7 4 359 356 351 346 345 342 338 336 332 331 334 336 337 339 341 344 345 343 341 340 338 337 336 335 335 334 332 330 329 329 330 330 329 328 327 324 318 307 289 271 262 258 256 253 250 246 243
187 183 182 180 178 178 178 179 179 176 173 166 161 151 124 88 65 75 85 83 79 72 57 46 39 33 29 25 22 17 11 10 9 9 9 7 4 1 357 353 351 347 345 342 338 335 332 330 331 334 337 339 340 343 345 343 341 340 339 337 336 334 333 333 331 330 329 329 329 329 328 327 327 326 323 317 305 285 267 259 255 253 250 245 242
188 184 182 181 178 175 177 179 177 175 171 164 163 161 132 90 66 70 70 61 71 77 58 42 34 26 20 16 15 14 10 9 10 9 6 3 359 357 354 351 349 346 344 342 339 336 332 330 331 334 337 340 340 342 344 344 341 339 338 336 334 334 333 332 330 330 330 329 328 328 327 327 326 325 323 321 313 300 282 266 256 252 250 246 241
186 185 184 182 178 174 177 179 174 169 168 167 170 172 139 90 71 67 57 47 60 68 55 40 28 17 12 9 9 11 11 11 11 7 1 357 355 353 352 350 348 345 343 341 339 336 334 332 333 335 337 340 341 341 343 344 342 339 339 336 333 333 333 331 329 329 330 329 328 328 327 325 323 321 320 319 314 306 294 277 260 252 249 246 241
185 186 183 182 180 177 178 175 169 168 172 177 179 174 138 98 77 54 42 44 52 55 48 35 20 10 5 4 5 8 11 10 6 1 358 354 351 351 351 349 347 345 342 340 339 337 336 335 336 338 339 340 340 341 343 344 342 340 340 336 331 330 331 329 328 329 329 329 328 327 325 322 321 320 320 318 315 310 300 285 267 253 248 246 242
186 186 182 181 181 180 177 172 169 172 174 177 175 160 129 101 86 39 25 40 47 50 50 31 10 0 357 359 4 8 9 6 359 355 355 352 350 350 349 349 347 345 343 343 342 340 339 339 340 341 341 341 342 343 344 344 341 338 338 336 331 329 330 328 328 329 329 328 326 324 323 322 321 321 322 321 318 315 306 293 276 258 248 245 243
189 188 184 182 179 178 177 174 174 174 172 172 169 153 132 109 87 34 23 37 44 51 58 33 360 349 351 356 3 8 5 358 352 351 351 351 351 351 349 349 349 347 347 346 345 345 343 343 343 343 342 342 343 345 343 342 341 338 337 335 331 330 331 329 328 329 328 326 325 323 322 323 323 323 323 324 323 320 313 302 288 267 250 243 241
193 190 186 183 181 179 178 177 176 174 170 166 159 149 136 122 93 50 29 30 40 46 45 19 343 340 349 358 5 6 360 352 348 348 349 350 352 352 351 353 353 352 351 349 348 349 347 345 343 343 344 343 343 345 345 343 341 338 337 335 332 332 331 329 327 325 324 326 326 323 322 324 325 323 324 327 327 324 318 309 296 278 257 244 239
196 191 187 185 184 181 178 178 177 172 168 162 153 152 143 124 100 60 27 20 30 32 16 350 332 336 348 0 7 2 355 350 347 347 349 351 352 354 354 355 356 357 356 354 353 351 348 346 343 343 346 344 343 345 346 344 341 339 338 336 334 332 330 327 324 320 321 326 327 324 322 325 326 323 323 329 329 323 318 311 301 287 268 250 239
197 193 189 187 186 183 178 177 177 170 163 157 152 152 149 134 113 81 27 14 10 359 347 336 332 341 350 356 358 356 353 349 346 347 349 350 353 356 357 356 358 0 360 359 359 355 350 347 343 343 345 345 344 345 348 348 344 341 339 336 334 332 330 328 324 320 322 327 328 324 321 325 327 322 321 326 326 319 314 308 301 289 274 257 242
198 194 191 188 186 184 177 173 173 168 160 158 157 151 144 140 133 109 27 359 341 322 324 327 336 347 352 346 345 351 353 349 346 347 348 350 353 357 358 358 360 2 3 2 2 0 356 351 346 344 345 346 346 347 350 352 348 343 340 336 335 334 332 329 324 322 325 329 329 325 320 323 328 322 319 324 325 320 314 304 295 286 275 262 245
197 193 191 189 186 182 174 168 168 166 162 160 158 147 136 132 132 126 27 324 309 306 317 328 337 344 343 334 336 347 351 349 347 347 348 350 354 356 358 360 1 4 5 5 4 2 360 356 351 347 347 348 349 350 354 356 352 347 343 339 338 337 334 331 327 326 328 331 333 329 322 323 327 321 318 323 324 321 317 305 294 284 273 263 250
194 192 189 187 185 179 171 167 167 168 167 162 153 143 136 129 126 128 131 291 295 305 320 330 334 334 329 325 334 346 349 348 348 348 348 350 353 355 358 1 2 3 6 7 6 4 3 1 357 354 353 353 353 355 359 0 357 352 347 344 344 342 339 337 333 330 330 335 340 339 326 322 324 319 317 322 323 319 317 310 299 285 270 261 251
192 190 188 185 181 177 171 166 166 169 167 159 149 143 141 135 127 121 121 250 281 299 316 325 326 326 328 329 337 346 350 351 350 349 349 352 355 356 358 0 1 2 5 7 6 6 6 4 1 360 359 358 358 360 4 6 3 358 352 349 349 347 344 342 337 332 332 338 346 344 330 323 325 322 319 322 322 318 317 317 307 287 272 262 250
194 190 189 185 177 173 169 164 165 168 165 156 149 146 144 138 124 106 97 119 270 289 304 313 321 331 334 334 341 349 353 354 352 351 351 354 356 357 358 359 359 1 4 6 6 6 6 5 4 4 3 3 4 5 8 10 9 4 358 354 352 350 347 343 340 336 336 342 349 346 333 326 327 326 324 324 321 316 316 319 311 290 284 279 256
198 193 189 186 179 171 167 166 164 163 161 156 150 148 143 133 117 102 95 98 105 119 249 285 331 337 330 339 351 357 358 357 355 353 354 356 358 359 358 357 358 1 3 5 5 5 4 3 4 5 6 7 9 10 11 13 13 9 5 1 357 352 347 345 344 341 338 342 349 349 337 329 329 329 329 326 320 316 317 317 307 296 295 290 272